N35386 KLBF-KBJC

Flight info

Callsign N35386
Flight time N/A
Altitude 8500
Route YOKES/N0111F080 GLL
Aircraft C172/L-SFG/C

Departure

Time 2026-04-21 01:27
Airport North Platte Regional Airport Lee Bird Field (KLBF)

Arrival

Time N/A
Airport Rocky Mountain Metropolitan Airport (KBJC)
Time Latitude Longitude Altitude Speed Heading
2026-04-21 01:10 41.13201 -100.69695 2774 ft 0 kts 90°
2026-04-21 01:22 41.13181 -100.69659 2774 ft 9 kts 172°
2026-04-21 01:22 41.13124 -100.69651 2774 ft 7 kts 144°
2026-04-21 01:22 41.13112 -100.69583 2774 ft 8 kts 89°
2026-04-21 01:22 41.13111 -100.69494 2774 ft 11 kts 93°
2026-04-21 01:23 41.13124 -100.69405 2774 ft 9 kts 28°
2026-04-21 01:23 41.13188 -100.69400 2774 ft 11 kts 359°
2026-04-21 01:23 41.13254 -100.69399 2774 ft 8 kts
2026-04-21 01:23 41.13299 -100.69383 2774 ft 6 kts 56°
2026-04-21 01:24 41.13300 -100.69367 2774 ft 0 kts 124°
2026-04-21 01:25 41.13299 -100.69342 2774 ft 7 kts 88°
2026-04-21 01:25 41.13280 -100.69290 2774 ft 7 kts 179°
2026-04-21 01:25 41.13163 -100.69293 2774 ft 36 kts 181°
2026-04-21 01:25 41.12775 -100.69304 2774 ft 72 kts 181°
2026-04-21 01:26 41.12214 -100.69306 2819 ft 87 kts 187°
2026-04-21 01:26 41.11586 -100.69353 2920 ft 93 kts 188°
2026-04-21 01:26 41.10927 -100.69422 3062 ft 96 kts 189°
2026-04-21 01:26 41.10251 -100.69498 3193 ft 98 kts 190°
2026-04-21 01:27 41.09569 -100.69553 3351 ft 97 kts 193°
2026-04-21 01:27 41.08977 -100.69880 3533 ft 91 kts 223°
2026-04-21 01:27 41.08606 -100.70546 3684 ft 91 kts 250°
2026-04-21 01:27 41.08540 -100.71380 3810 ft 92 kts 272°
2026-04-21 01:28 41.08702 -100.72200 3970 ft 93 kts 292°
2026-04-21 01:28 41.08977 -100.72970 4055 ft 94 kts 287°
2026-04-21 01:28 41.09211 -100.73745 4242 ft 87 kts 287°
2026-04-21 01:28 41.09369 -100.74507 4394 ft 87 kts 271°
2026-04-21 01:29 41.09324 -100.75288 4604 ft 82 kts 256°
2026-04-21 01:29 41.09210 -100.76003 4830 ft 78 kts 256°
2026-04-21 01:29 41.09128 -100.76710 4946 ft 80 kts 258°
2026-04-21 01:29 41.09045 -100.77426 5037 ft 79 kts 257°
2026-04-21 01:30 41.08977 -100.78185 5142 ft 87 kts 258°
2026-04-21 01:30 41.08892 -100.78975 5241 ft 87 kts 258°
2026-04-21 01:30 41.08800 -100.79768 5344 ft 88 kts 258°
2026-04-21 01:30 41.08707 -100.80586 5433 ft 90 kts 258°
2026-04-21 01:31 41.08615 -100.81375 5524 ft 85 kts 258°
2026-04-21 01:31 41.08531 -100.82115 5609 ft 80 kts 258°
2026-04-21 01:31 41.08453 -100.82850 5715 ft 81 kts 259°
2026-04-21 01:31 41.08377 -100.83608 5809 ft 80 kts 257°
2026-04-21 01:32 41.08359 -100.84337 5905 ft 85 kts 276°
2026-04-21 01:32 41.08657 -100.85059 6005 ft 92 kts 297°
2026-04-21 01:32 41.09018 -100.85724 6086 ft 87 kts 295°
2026-04-21 01:32 41.09374 -100.86352 6192 ft 86 kts 296°
2026-04-21 01:33 41.09736 -100.86998 6299 ft 88 kts 295°
2026-04-21 01:33 41.10110 -100.87675 6409 ft 93 kts 295°
2026-04-21 01:33 41.10492 -100.88381 6514 ft 96 kts 296°
2026-04-21 01:33 41.10885 -100.89114 6609 ft 98 kts 296°
2026-04-21 01:34 41.11283 -100.89862 6704 ft 100 kts 296°
2026-04-21 01:34 41.11680 -100.90607 6796 ft 97 kts 296°
2026-04-21 01:34 41.12064 -100.91327 6883 ft 94 kts 296°
2026-04-21 01:34 41.12439 -100.92027 6978 ft 92 kts 296°
2026-04-21 01:35 41.12809 -100.92708 7064 ft 90 kts 296°
2026-04-21 01:35 41.13174 -100.93374 7154 ft 88 kts 296°
2026-04-21 01:35 41.13535 -100.94028 7245 ft 87 kts 296°
2026-04-21 01:35 41.13877 -100.94676 7334 ft 84 kts 291°
2026-04-21 01:36 41.14186 -100.95332 7426 ft 83 kts 291°
2026-04-21 01:36 41.14455 -100.95995 7518 ft 80 kts 286°
2026-04-21 01:36 41.14665 -100.96670 7608 ft 79 kts 283°
2026-04-21 01:36 41.14871 -100.97334 7700 ft 77 kts 283°
2026-04-21 01:37 41.15073 -100.97983 7781 ft 77 kts 283°
2026-04-21 01:37 41.15233 -100.98665 7845 ft 80 kts 276°
2026-04-21 01:37 41.15386 -100.99404 7912 ft 88 kts 277°
2026-04-21 01:37 41.15541 -101.00221 7985 ft 93 kts 277°
2026-04-21 01:38 41.15696 -101.01057 8023 ft 93 kts 278°
2026-04-21 01:38 41.15854 -101.01907 8084 ft 98 kts 277°
2026-04-21 01:38 41.15986 -101.02795 8129 ft 97 kts 274°
2026-04-21 01:38 41.16107 -101.03687 8184 ft 100 kts 275°
2026-04-21 01:39 41.16233 -101.04612 8241 ft 103 kts 275°
2026-04-21 01:39 41.16359 -101.05556 8286 ft 105 kts 275°
2026-04-21 01:39 41.16448 -101.06500 8337 ft 103 kts 268°
2026-04-21 01:39 41.16486 -101.07445 8379 ft 101 kts 269°
2026-04-21 01:40 41.16524 -101.08380 8428 ft 101 kts 268°
2026-04-21 01:40 41.16563 -101.09312 8468 ft 100 kts 269°
2026-04-21 01:40 41.16605 -101.10235 8516 ft 99 kts 268°
2026-04-21 01:40 41.16641 -101.11159 8571 ft 102 kts 269°
2026-04-21 01:41 41.16684 -101.12101 8617 ft 102 kts 269°
2026-04-21 01:41 41.16727 -101.13032 8662 ft 101 kts 269°
2026-04-21 01:41 41.16772 -101.13951 8659 ft 96 kts 269°
2026-04-21 01:41 41.16819 -101.14816 8660 ft 91 kts 269°
2026-04-21 01:42 41.16866 -101.15633 8660 ft 87 kts 269°
2026-04-21 01:42 41.16905 -101.16418 8661 ft 83 kts 266°
2026-04-21 01:42 41.16895 -101.17183 8660 ft 83 kts 264°
2026-04-21 01:42 41.16884 -101.17946 8659 ft 83 kts 264°
2026-04-21 01:43 41.16874 -101.18709 8659 ft 83 kts 264°
2026-04-21 01:43 41.16864 -101.19466 8626 ft 87 kts 265°
2026-04-21 01:43 41.16853 -101.20298 8518 ft 93 kts 264°
2026-04-21 01:43 41.16725 -101.21142 8403 ft 95 kts 252°
2026-04-21 01:44 41.16545 -101.22001 8288 ft 98 kts 252°
2026-04-21 01:44 41.16362 -101.22886 8174 ft 100 kts 252°
2026-04-21 01:44 41.16176 -101.23776 8049 ft 101 kts 253°
2026-04-21 01:44 41.15994 -101.24667 7919 ft 98 kts 253°
2026-04-21 01:45 41.15815 -101.25530 7791 ft 96 kts 253°
2026-04-21 01:45 41.15642 -101.26371 7668 ft 95 kts 253°
2026-04-21 01:45 41.15472 -101.27210 7550 ft 94 kts 253°
2026-04-21 01:45 41.15304 -101.28049 7427 ft 94 kts 253°
2026-04-21 01:46 41.15138 -101.28887 7301 ft 94 kts 253°
2026-04-21 01:46 41.14972 -101.29723 7193 ft 93 kts 253°
2026-04-21 01:46 41.14809 -101.30552 7067 ft 92 kts 253°
2026-04-21 01:46 41.14651 -101.31373 6939 ft 91 kts 253°
2026-04-21 01:47 41.14494 -101.32194 6818 ft 91 kts 253°
2026-04-21 01:47 41.14341 -101.33008 6692 ft 91 kts 253°
2026-04-21 01:47 41.14191 -101.33804 6665 ft 86 kts 253°
2026-04-21 01:47 41.14051 -101.34564 6655 ft 84 kts 253°
2026-04-21 01:48 41.13910 -101.35314 6656 ft 84 kts 254°
2026-04-21 01:48 41.13772 -101.36067 6662 ft 85 kts 253°
2026-04-21 01:48 41.13631 -101.36833 6668 ft 85 kts 253°
2026-04-21 01:48 41.13491 -101.37594 6665 ft 84 kts 253°
2026-04-21 01:49 41.13395 -101.38358 6661 ft 83 kts 259°
2026-04-21 01:49 41.13319 -101.39113 6661 ft 83 kts 259°
2026-04-21 01:49 41.13248 -101.39865 6658 ft 82 kts 259°
2026-04-21 01:49 41.13185 -101.40591 6659 ft 80 kts 258°
2026-04-21 01:50 41.13121 -101.41321 6667 ft 81 kts 258°
2026-04-21 01:50 41.13072 -101.42074 6666 ft 82 kts 264°
2026-04-21 01:50 41.13112 -101.42837 6669 ft 83 kts 269°
2026-04-21 01:50 41.13175 -101.43600 6666 ft 83 kts 270°
2026-04-21 01:51 41.13239 -101.44368 6669 ft 84 kts 270°
2026-04-21 01:51 41.13302 -101.45139 6673 ft 85 kts 270°
2026-04-21 01:51 41.13368 -101.45919 6676 ft 85 kts 270°
2026-04-21 01:51 41.13433 -101.46690 6672 ft 84 kts 270°
2026-04-21 01:52 41.13508 -101.47455 6671 ft 83 kts 270°
2026-04-21 01:52 41.13657 -101.48948 6660 ft 80 kts 270°
2026-04-21 01:52 41.13729 -101.49665 6661 ft 77 kts 270°
2026-04-21 01:53 41.13798 -101.50367 6664 ft 77 kts 271°
2026-04-21 01:53 41.13870 -101.51060 6666 ft 75 kts 270°
2026-04-21 01:53 41.13945 -101.51764 6671 ft 78 kts 270°
2026-04-21 01:53 41.14018 -101.52493 6683 ft 81 kts 270°
2026-04-21 01:54 41.14090 -101.53235 6683 ft 81 kts 270°
2026-04-21 01:54 41.14162 -101.53977 6685 ft 81 kts 270°
2026-04-21 01:54 41.14232 -101.54745 6685 ft 85 kts 271°
2026-04-21 01:54 41.14306 -101.55523 6678 ft 85 kts 270°
2026-04-21 01:55 41.14386 -101.56296 6676 ft 84 kts 271°
2026-04-21 01:55 41.14466 -101.57064 6675 ft 84 kts 270°
2026-04-21 01:55 41.14548 -101.57837 6679 ft 85 kts 270°
2026-04-21 01:55 41.14630 -101.58603 6678 ft 82 kts 270°
2026-04-21 01:56 41.14709 -101.59363 6682 ft 84 kts 271°
2026-04-21 01:56 41.14788 -101.60142 6658 ft 86 kts 271°
2026-04-21 01:56 41.14838 -101.60910 6659 ft 83 kts 264°
2026-04-21 01:56 41.14848 -101.61679 6658 ft 86 kts 265°
2026-04-21 01:57 41.14854 -101.62473 6656 ft 88 kts 265°
2026-04-21 01:57 41.14858 -101.63292 6651 ft 88 kts 265°
2026-04-21 01:57 41.14861 -101.64109 6651 ft 89 kts 265°
2026-04-21 01:57 41.14867 -101.64939 6660 ft 90 kts 265°
2026-04-21 01:58 41.14873 -101.65747 6648 ft 85 kts 264°
2026-04-21 01:58 41.14880 -101.66549 6651 ft 88 kts 265°
2026-04-21 01:58 41.14866 -101.67371 6653 ft 90 kts 259°
2026-04-21 01:58 41.14780 -101.68207 6658 ft 93 kts 259°
2026-04-21 01:59 41.14710 -101.69050 6648 ft 91 kts 258°
2026-04-21 01:59 41.14637 -101.69874 6646 ft 89 kts 258°
2026-04-21 01:59 41.14568 -101.70685 6655 ft 90 kts 258°
2026-04-21 01:59 41.14498 -101.71521 6648 ft 90 kts 259°
2026-04-21 02:00 41.14399 -101.72318 6641 ft 86 kts 253°
2026-04-21 02:00 41.14276 -101.73094 6652 ft 86 kts 253°
2026-04-21 02:00 41.14149 -101.73880 6646 ft 87 kts 255°
2026-04-21 02:00 41.14028 -101.74660 6645 ft 86 kts 253°
2026-04-21 02:01 41.13908 -101.75439 6651 ft 87 kts 254°
2026-04-21 02:01 41.13782 -101.76251 6650 ft 92 kts 254°
2026-04-21 02:01 41.13655 -101.77065 6648 ft 88 kts 254°
2026-04-21 02:01 41.13531 -101.77853 6649 ft 88 kts 253°
2026-04-21 02:02 41.13418 -101.78643 6640 ft 86 kts 253°
2026-04-21 02:02 41.13306 -101.79408 6655 ft 88 kts 254°
2026-04-21 02:02 41.13187 -101.80218 6661 ft 91 kts 254°
2026-04-21 02:02 41.13064 -101.81042 6661 ft 92 kts 254°
2026-04-21 02:03 41.12935 -101.81890 6652 ft 94 kts 254°
2026-04-21 02:03 41.12802 -101.82736 6656 ft 93 kts 254°
2026-04-21 02:03 41.12674 -101.83583 6658 ft 94 kts 254°
2026-04-21 02:03 41.12528 -101.84432 6659 ft 94 kts 252°
2026-04-21 02:04 41.12376 -101.85282 6658 ft 95 kts 252°
2026-04-21 02:04 41.12221 -101.86132 6659 ft 94 kts 252°
2026-04-21 02:04 41.12067 -101.86979 6655 ft 94 kts 252°
2026-04-21 02:04 41.11918 -101.87816 6654 ft 93 kts 252°
2026-04-21 02:05 41.11772 -101.88647 6649 ft 91 kts 253°
2026-04-21 02:05 41.11628 -101.89467 6650 ft 92 kts 253°
2026-04-21 02:05 41.11482 -101.90298 6652 ft 94 kts 252°
2026-04-21 02:05 41.11331 -101.91142 6646 ft 94 kts 252°
2026-04-21 02:06 41.11227 -101.91695 6646 ft 93 kts 251°
2026-04-21 02:06 41.11041 -101.92514 6643 ft 92 kts 250°
2026-04-21 02:06 41.10861 -101.93324 6639 ft 90 kts 249°
2026-04-21 02:06 41.10685 -101.94108 6646 ft 86 kts 249°
2026-04-21 02:07 41.10515 -101.94881 6644 ft 88 kts 250°
2026-04-21 02:07 41.10341 -101.95672 6648 ft 91 kts 250°
2026-04-21 02:07 41.10164 -101.96481 6653 ft 92 kts 250°
2026-04-21 02:07 41.09989 -101.97301 6652 ft 93 kts 250°
2026-04-21 02:08 41.09809 -101.98123 6647 ft 93 kts 250°
2026-04-21 02:08 41.09625 -101.98948 6647 ft 93 kts 250°
2026-04-21 02:08 41.09447 -101.99770 6644 ft 92 kts 250°
2026-04-21 02:08 41.09278 -102.00582 6643 ft 91 kts 250°
2026-04-21 02:09 41.09114 -102.01384 6638 ft 89 kts 250°
2026-04-21 02:09 41.08953 -102.02176 6636 ft 89 kts 250°
2026-04-21 02:09 41.08787 -102.02969 6633 ft 89 kts 250°
2026-04-21 02:09 41.08622 -102.03762 6631 ft 89 kts 250°
2026-04-21 02:10 41.08460 -102.04552 6622 ft 88 kts 250°
2026-04-21 02:10 41.08312 -102.05321 6621 ft 86 kts 250°
2026-04-21 02:10 41.08164 -102.06077 6622 ft 84 kts 246°
2026-04-21 02:10 41.07941 -102.06785 6627 ft 84 kts 244°
2026-04-21 02:11 41.07715 -102.07505 6625 ft 85 kts 244°
2026-04-21 02:11 41.07486 -102.08224 6628 ft 85 kts 244°
2026-04-21 02:11 41.07256 -102.08955 6629 ft 86 kts 243°
2026-04-21 02:11 41.07019 -102.09694 6628 ft 88 kts 243°
2026-04-21 02:12 41.06782 -102.10435 6626 ft 87 kts 244°
2026-04-21 02:12 41.06528 -102.11171 6628 ft 88 kts 241°
2026-04-21 02:12 41.06272 -102.11913 6627 ft 88 kts 242°
2026-04-21 02:12 41.06018 -102.12655 6627 ft 88 kts 242°
2026-04-21 02:13 41.05742 -102.13382 6626 ft 89 kts 239°
2026-04-21 02:13 41.05451 -102.14089 6623 ft 89 kts 239°
2026-04-21 02:13 41.05153 -102.14812 6625 ft 90 kts 238°
2026-04-21 02:13 41.04812 -102.15512 6623 ft 91 kts 235°
2026-04-21 02:14 41.04467 -102.16211 6621 ft 91 kts 235°
2026-04-21 02:14 41.04124 -102.16913 6616 ft 90 kts 235°
2026-04-21 02:14 41.03790 -102.17600 6610 ft 87 kts 235°
2026-04-21 02:14 41.03461 -102.18261 6609 ft 85 kts 235°
2026-04-21 02:15 41.03091 -102.18867 6600 ft 85 kts 223°
2026-04-21 02:15 41.02673 -102.19412 6575 ft 84 kts 230°
2026-04-21 02:15 41.02289 -102.19989 6578 ft 82 kts 229°
2026-04-21 02:15 41.01913 -102.20556 6575 ft 82 kts 229°
2026-04-21 02:16 41.01541 -102.21125 6577 ft 81 kts 229°
2026-04-21 02:16 41.01185 -102.21706 6581 ft 82 kts 231°
2026-04-21 02:16 41.00834 -102.22304 6581 ft 83 kts 231°
2026-04-21 02:16 41.00469 -102.22917 6587 ft 86 kts 231°
2026-04-21 02:17 41.00092 -102.23556 6594 ft 90 kts 231°
2026-04-21 02:17 40.99695 -102.24218 6596 ft 93 kts 230°
2026-04-21 02:17 40.99295 -102.24910 6595 ft 95 kts 231°
2026-04-21 02:17 40.98886 -102.25609 6592 ft 97 kts 231°
2026-04-21 02:18 40.98480 -102.26297 6591 ft 96 kts 232°
2026-04-21 02:18 40.98086 -102.27007 6588 ft 96 kts 236°
2026-04-21 02:18 40.97812 -102.27804 6584 ft 95 kts 248°
2026-04-21 02:18 40.97622 -102.28619 6575 ft 91 kts 248°
2026-04-21 02:19 40.97453 -102.29411 6576 ft 87 kts 248°
2026-04-21 02:19 40.97296 -102.30171 6575 ft 84 kts 248°
2026-04-21 02:19 40.97148 -102.30903 6579 ft 82 kts 250°
2026-04-21 02:19 40.97037 -102.31668 6584 ft 87 kts 252°
2026-04-21 02:20 40.96916 -102.32462 6589 ft 89 kts 253°
2026-04-21 02:20 40.96797 -102.33257 6584 ft 87 kts 252°
2026-04-21 02:20 40.96683 -102.34032 6563 ft 84 kts 252°
2026-04-21 02:20 40.96581 -102.34786 6561 ft 83 kts 253°
2026-04-21 02:21 40.96482 -102.35532 6568 ft 81 kts 252°
2026-04-21 02:21 40.96385 -102.36268 6567 ft 82 kts 253°
2026-04-21 02:21 40.96290 -102.37022 6571 ft 83 kts 252°
2026-04-21 02:21 40.96193 -102.37781 6570 ft 83 kts 253°
2026-04-21 02:22 40.96087 -102.38528 6573 ft 83 kts 253°
2026-04-21 02:22 40.95981 -102.39279 6573 ft 83 kts 253°
2026-04-21 02:22 40.95875 -102.40030 6573 ft 82 kts 252°
2026-04-21 02:22 40.95747 -102.40775 6579 ft 84 kts 251°
2026-04-21 02:23 40.95620 -102.41540 6579 ft 86 kts 251°
2026-04-21 02:23 40.95493 -102.42328 6577 ft 88 kts 251°
2026-04-21 02:23 40.95357 -102.43130 6579 ft 90 kts 252°
2026-04-21 02:23 40.95216 -102.43943 6575 ft 91 kts 251°
2026-04-21 02:24 40.95078 -102.44747 6573 ft 90 kts 251°
2026-04-21 02:24 40.94942 -102.45552 6572 ft 89 kts 251°
2026-04-21 02:24 40.94816 -102.46346 6575 ft 89 kts 252°
2026-04-21 02:24 40.94696 -102.47145 6572 ft 88 kts 251°
2026-04-21 02:25 40.94578 -102.47932 6574 ft 87 kts 251°
2026-04-21 02:25 40.94461 -102.48714 6565 ft 87 kts 251°
2026-04-21 02:25 40.94337 -102.49505 6566 ft 88 kts 252°
2026-04-21 02:25 40.94215 -102.50307 6565 ft 89 kts 252°
2026-04-21 02:26 40.94086 -102.51116 6564 ft 90 kts 252°
2026-04-21 02:26 40.93954 -102.51928 6565 ft 90 kts 251°
2026-04-21 02:26 40.93825 -102.52735 6562 ft 89 kts 253°
2026-04-21 02:26 40.93691 -102.53522 6558 ft 87 kts 252°
2026-04-21 02:27 40.93565 -102.54299 6556 ft 86 kts 252°
2026-04-21 02:27 40.93439 -102.55067 6552 ft 85 kts 252°
2026-04-21 02:27 40.93313 -102.55823 6550 ft 85 kts 252°
2026-04-21 02:27 40.93190 -102.56602 6553 ft 87 kts 252°
2026-04-21 02:28 40.93061 -102.57392 6553 ft 88 kts 252°
2026-04-21 02:28 40.92940 -102.58177 6558 ft 87 kts 252°
2026-04-21 02:28 40.92823 -102.58962 6556 ft 87 kts 252°
2026-04-21 02:28 40.92689 -102.59736 6565 ft 86 kts 245°
2026-04-21 02:29 40.92450 -102.60473 6568 ft 88 kts 243°
2026-04-21 02:29 40.92203 -102.61220 6571 ft 89 kts 243°
2026-04-21 02:29 40.91950 -102.61964 6565 ft 87 kts 242°
2026-04-21 02:29 40.91717 -102.62688 6558 ft 85 kts 243°
2026-04-21 02:30 40.91486 -102.63415 6568 ft 87 kts 243°
2026-04-21 02:30 40.91240 -102.64166 6576 ft 91 kts 242°
2026-04-21 02:30 40.90984 -102.64959 6575 ft 95 kts 243°
2026-04-21 02:30 40.90707 -102.65751 6573 ft 97 kts 242°
2026-04-21 02:31 40.90436 -102.66550 6575 ft 95 kts 243°
2026-04-21 02:31 40.90176 -102.67329 6572 ft 92 kts 242°
2026-04-21 02:31 40.89931 -102.68091 6571 ft 90 kts 243°
2026-04-21 02:31 40.89695 -102.68851 6578 ft 90 kts 246°
2026-04-21 02:32 40.89474 -102.69618 6577 ft 89 kts 242°
2026-04-21 02:32 40.89226 -102.70377 6575 ft 90 kts 243°
2026-04-21 02:32 40.88904 -102.71089 6582 ft 91 kts 235°
2026-04-21 02:32 40.88552 -102.71793 6575 ft 92 kts 235°
2026-04-21 02:33 40.88200 -102.72501 6580 ft 92 kts 234°
2026-04-21 02:33 40.87857 -102.73216 6576 ft 92 kts 235°
2026-04-21 02:33 40.87513 -102.73926 6579 ft 92 kts 235°
2026-04-21 02:33 40.87171 -102.74650 6574 ft 93 kts 235°
2026-04-21 02:34 40.86828 -102.75357 6573 ft 89 kts 235°
2026-04-21 02:34 40.86503 -102.76036 6568 ft 86 kts 235°
2026-04-21 02:34 40.86190 -102.76686 6578 ft 86 kts 235°
2026-04-21 02:34 40.85873 -102.77362 6587 ft 87 kts 236°
2026-04-21 02:35 40.85529 -102.78042 6587 ft 89 kts 236°
2026-04-21 02:35 40.85192 -102.78716 6583 ft 88 kts 235°
2026-04-21 02:35 40.84865 -102.79406 6581 ft 89 kts 238°
2026-04-21 02:35 40.84597 -102.80152 6579 ft 90 kts 240°
2026-04-21 02:36 40.84332 -102.80901 6581 ft 90 kts 240°
2026-04-21 02:36 40.84070 -102.81645 6579 ft 89 kts 241°
2026-04-21 02:36 40.83799 -102.82370 6576 ft 88 kts 240°
2026-04-21 02:36 40.83533 -102.83107 6577 ft 89 kts 241°
2026-04-21 02:37 40.83268 -102.83849 6579 ft 89 kts 240°
2026-04-21 02:37 40.83019 -102.84594 6575 ft 87 kts 241°
2026-04-21 02:37 40.82767 -102.85323 6580 ft 89 kts 241°
2026-04-21 02:37 40.82506 -102.86080 6579 ft 92 kts 241°
2026-04-21 02:38 40.82237 -102.86847 6580 ft 92 kts 241°
2026-04-21 02:38 40.81975 -102.87597 6570 ft 88 kts 241°
2026-04-21 02:38 40.81720 -102.88320 6574 ft 85 kts 241°
2026-04-21 02:38 40.81467 -102.89013 6566 ft 83 kts 240°
2026-04-21 02:39 40.81226 -102.89700 6574 ft 83 kts 241°
2026-04-21 02:39 40.80980 -102.90392 6568 ft 83 kts 241°
2026-04-21 02:39 40.80741 -102.91092 6572 ft 84 kts 242°
2026-04-21 02:39 40.80498 -102.91799 6566 ft 84 kts 241°
2026-04-21 02:40 40.80240 -102.92480 6560 ft 82 kts 238°
2026-04-21 02:40 40.79972 -102.93141 6558 ft 81 kts 238°
2026-04-21 02:40 40.79715 -102.93789 6561 ft 79 kts 238°
2026-04-21 02:40 40.79449 -102.94425 6551 ft 79 kts 234°
2026-04-21 02:41 40.79169 -102.95038 6557 ft 77 kts 236°
2026-04-21 02:41 40.78893 -102.95639 6555 ft 76 kts 235°
2026-04-21 02:41 40.78628 -102.96227 6550 ft 74 kts 236°
2026-04-21 02:41 40.78359 -102.96819 6555 ft 76 kts 236°
2026-04-21 02:42 40.78083 -102.97422 6562 ft 78 kts 236°
2026-04-21 02:42 40.77764 -102.98010 6571 ft 80 kts 232°
2026-04-21 02:42 40.77421 -102.98618 6560 ft 83 kts 232°
2026-04-21 02:42 40.77077 -102.99227 6566 ft 84 kts 231°
2026-04-21 02:43 40.76714 -102.99880 6512 ft 95 kts 232°
2026-04-21 02:43 40.76310 -103.00616 6418 ft 104 kts 232°
2026-04-21 02:43 40.75880 -103.01376 6407 ft 102 kts 232°
2026-04-21 02:43 40.75450 -103.02118 6403 ft 101 kts 232°
2026-04-21 02:44 40.75020 -103.02849 6384 ft 100 kts 232°
2026-04-21 02:44 40.74613 -103.03570 6402 ft 97 kts 231°
2026-04-21 02:44 40.74212 -103.04289 6403 ft 97 kts 232°
2026-04-21 02:44 40.73818 -103.05012 6401 ft 97 kts 232°
2026-04-21 02:45 40.73421 -103.05740 6403 ft 98 kts 232°
2026-04-21 02:45 40.73024 -103.06474 6423 ft 98 kts 232°
2026-04-21 02:45 40.72617 -103.07174 6423 ft 94 kts 229°
2026-04-21 02:45 40.72206 -103.07835 6428 ft 94 kts 229°
2026-04-21 02:46 40.71784 -103.08520 6431 ft 98 kts 227°
2026-04-21 02:46 40.71322 -103.09194 6420 ft 99 kts 227°
2026-04-21 02:46 40.70859 -103.09855 6410 ft 97 kts 226°
2026-04-21 02:46 40.70405 -103.10488 6426 ft 97 kts 226°
2026-04-21 02:47 40.69953 -103.11144 6423 ft 96 kts 227°
2026-04-21 02:47 40.69505 -103.11808 6427 ft 97 kts 227°
2026-04-21 02:47 40.69039 -103.12474 6420 ft 100 kts 226°
2026-04-21 02:47 40.68565 -103.13150 6417 ft 100 kts 226°
2026-04-21 02:48 40.68076 -103.13790 6416 ft 99 kts 218°
2026-04-21 02:48 40.67513 -103.14279 6418 ft 95 kts 218°
2026-04-21 02:48 40.66970 -103.14757 6433 ft 97 kts 218°
2026-04-21 02:48 40.66410 -103.15261 6431 ft 97 kts 219°
2026-04-21 02:49 40.65844 -103.15769 6433 ft 100 kts 216°
2026-04-21 02:49 40.65237 -103.16238 6435 ft 101 kts 217°
2026-04-21 02:49 40.64623 -103.16719 6418 ft 101 kts 215°
2026-04-21 02:49 40.64046 -103.17171 6489 ft 93 kts 215°
2026-04-21 02:50 40.63504 -103.17580 6497 ft 88 kts 216°
2026-04-21 02:50 40.62982 -103.17975 6503 ft 88 kts 216°
2026-04-21 02:50 40.62441 -103.18374 6506 ft 91 kts 213°
2026-04-21 02:50 40.61908 -103.18792 6498 ft 91 kts 216°
2026-04-21 02:51 40.61354 -103.19214 6493 ft 92 kts 216°
2026-04-21 02:51 40.60817 -103.19629 6499 ft 88 kts 217°
2026-04-21 02:51 40.60281 -103.20043 6496 ft 89 kts 215°
2026-04-21 02:51 40.59751 -103.20449 6490 ft 87 kts 216°
2026-04-21 02:52 40.59236 -103.20837 6497 ft 85 kts 216°
2026-04-21 02:52 40.58725 -103.21213 6492 ft 84 kts 215°
2026-04-21 02:52 40.58247 -103.21613 6506 ft 81 kts 215°
2026-04-21 02:52 40.57744 -103.22050 6507 ft 92 kts 217°
2026-04-21 02:53 40.57181 -103.22520 6508 ft 99 kts 216°
2026-04-21 02:53 40.56594 -103.23034 6510 ft 103 kts 216°
2026-04-21 02:53 40.55996 -103.23556 6482 ft 100 kts 216°
2026-04-21 02:53 40.55424 -103.24049 6497 ft 98 kts 216°
2026-04-21 02:54 40.54868 -103.24542 6498 ft 95 kts 214°
2026-04-21 02:54 40.54501 -103.24859 6487 ft 95 kts 216°
2026-04-21 02:54 40.54009 -103.25452 6510 ft 102 kts 231°
2026-04-21 02:54 40.53663 -103.26275 6495 ft 101 kts 247°
2026-04-21 02:55 40.53612 -103.27179 6494 ft 99 kts 265°
2026-04-21 02:55 40.53610 -103.28082 6498 ft 103 kts 266°
2026-04-21 02:55 40.53631 -103.29018 6499 ft 101 kts 266°
2026-04-21 02:55 40.53672 -103.29926 6501 ft 99 kts 268°
2026-04-21 02:56 40.53705 -103.30872 6509 ft 109 kts 268°
2026-04-21 02:56 40.53802 -103.32930 6501 ft 114 kts 268°
2026-04-21 02:56 40.53848 -103.33970 6494 ft 111 kts 269°
2026-04-21 02:57 40.53898 -103.34956 6499 ft 107 kts 268°
2026-04-21 02:57 40.53941 -103.35935 6491 ft 107 kts 269°
2026-04-21 02:57 40.53985 -103.36905 6483 ft 105 kts 269°
2026-04-21 02:57 40.54029 -103.37848 6483 ft 102 kts 269°
2026-04-21 02:58 40.54072 -103.38772 6483 ft 102 kts 269°
2026-04-21 02:58 40.54114 -103.39699 6479 ft 100 kts 268°
2026-04-21 02:58 40.54157 -103.40611 6476 ft 99 kts 270°
2026-04-21 02:58 40.54204 -103.41503 6476 ft 98 kts 272°
2026-04-21 02:59 40.54237 -103.42391 6465 ft 97 kts 269°
2026-04-21 02:59 40.54276 -103.43272 6473 ft 96 kts 269°
2026-04-21 02:59 40.54317 -103.44144 6474 ft 96 kts 268°
2026-04-21 02:59 40.54358 -103.45020 6467 ft 97 kts 269°
2026-04-21 03:00 40.54399 -103.45898 6467 ft 95 kts 269°
2026-04-21 03:00 40.54438 -103.46753 6464 ft 93 kts 269°